#timestamp,LO_Frequency,Hit,StdDev 
1595354415.7,286047003.9,N
1595354435.6,286047004.1,N
1595354455.4,286047001.3,N
1595354475.2,286047004.3,N
1595354495.1,286047004.2,N
1595354496.0,286047004.2,N
1595354515.8,286047003.8,N
1595354535.7,286047003.8,N
1595354555.5,286047002.4,N
1595354575.3,286047001.5,N
1595354595.2,286047001.7,N
1595354615.0,286047001.1,N
1595354615.9,286047001.1,N
1595354635.7,286046998.1,N
1595354655.6,286046998.7,N
1595354675.4,286046998.1,N
1595354695.3,286046997.4,N
1595354715.1,286046995.0,N
1595354716.0,286046995.0,N
1595354735.8,286046997.8,N
1595354755.7,286046996.7,N
1595354775.5,286046998.9,N
1595354795.3,286046999.2,N
1595354815.2,286046999.3,N
1595354835.0,286047001.2,N
1595354835.9,286047001.2,N
1595354855.8,286046998.5,N
1595354875.6,286046998.1,N
1595354895.4,286046998.3,N
1595354915.3,286047000.8,N
1595354935.1,286047000.6,N
1595354955.8,286047000.6,N
1595354975.7,286046999.9,N
1595354995.5,286047002.8,N
1595355015.4,286047002.5,N
1595355035.2,286047002.4,N
1595355055.0,286047001.5,N
1595355055.9,286047001.5,N
1595355075.8,286047003.9,N
1595355095.6,286047003.8,N
1595355115.4,286047003.2,N
1595355135.3,286047003.4,N
1595355155.1,286047003.3,N
1595355175.9,286047006.0,N
1595355195.7,286047003.3,N
1595355215.5,286047002.9,N
1595355235.4,286047005.6,N
1595355255.2,286047005.9,N
1595355275.0,286047005.6,N
1595355275.9,286047005.6,N
1595355295.8,286047005.4,N
1595355315.6,286047005.3,N
1595355335.5,286047005.1,N
1595355355.3,286047005.7,N
1595355375.1,286047005.1,N
1595355395.9,286047004.7,N
1595355415.7,286047004.5,N
1595355435.5,286047007.5,Y
1595355455.4,286047004.4,P
1595355475.2,286047001.8,P
1595355495.1,286047001.8,N
1595355496.0,286047001.8,N
1595355515.8,286047002.0,N
1595355535.6,286047001.4,N
1595355555.5,286047000.0,N
1595355575.3,286047000.1,N
1595355595.1,286047002.3,N
1595355615.9,286047000.6,N
1595355635.7,286047002.6,N
1595355655.6,286047000.5,N
1595355675.4,286047000.9,N
1595355695.2,286047000.0,N
1595355715.1,286047000.6,N
1595355716.0,286047000.6,N
1595355735.8,286047000.8,N
1595355755.6,286046998.7,N
1595355775.5,286047001.1,N
1595355795.3,286046999.9,N
1595355815.1,286047002.2,N
1595355835.9,286047001.9,N
1595355855.7,286047000.1,N
1595355875.6,286047002.4,N
1595355895.4,286047000.2,N
1595355915.2,286047000.0,N
1595355935.1,286047001.9,N
1595355936.0,286047001.9,N
1595355955.8,286047001.7,N
1595355975.6,286047001.9,N
1595355995.5,286047001.4,N
1595356015.3,286047001.3,N
1595356035.2,286047001.6,N
1595356055.9,286047001.5,N
1595356075.7,286047004.1,Y
1595356095.6,286047001.3,P
1595356115.4,286047004.4,P
1595356135.2,286047004.0,N
1595356155.1,286047001.3,N
1595356156.0,286047001.3,N
1595356175.8,286047001.5,N
1595356195.7,286047002.5,N
1595356215.5,286047002.6,N
1595356235.3,286047000.4,N
1595356255.2,286047002.8,N
1595356275.0,286047002.7,N
1595356275.9,286047002.7,N
1595356295.8,286047001.7,N
1595356315.6,286047004.2,Y
1595356335.4,286047002.5,P
1595356355.3,286047001.5,P
1595356375.1,286047001.9,P
1595356395.8,286046999.8,N
1595356415.7,286047001.9,N
1595356435.5,286047001.4,N
1595356455.4,286047002.2,N
1595356475.2,286047002.5,Y
1595356495.0,286047000.3,P
1595356495.9,286047000.3,N
1595356515.8,286047002.8,P
1595356535.6,286046999.9,N
1595356555.4,286047001.1,N
1595356575.3,286046998.1,N
1595356595.1,286047000.3,N
1595356615.9,286046998.1,N
1595356635.7,286046998.7,N
1595356655.5,286046997.7,N
1595356675.4,286046995.6,N
1595356695.2,286046993.8,Y
1595356715.0,286046996.1,P
1595356716.0,286046996.1,N
1595356735.8,286046994.0,P
1595356755.6,286046995.2,N
1595356775.5,286046995.7,N
1595356795.3,286046993.7,Y
1595356815.1,286046998.3,P
1595356835.9,286046999.0,N
1595356855.7,286046999.2,N
1595356875.6,286047001.1,N
1595356895.4,286047000.9,N
1595356915.2,286046999.7,N
1595356935.1,286047001.8,N
1595356936.0,286047001.8,N
1595356955.8,286047002.0,N
1595356975.6,286047001.8,N
1595356995.5,286047001.7,N
1595357015.3,286047001.5,N
1595357035.2,286047004.3,N
1595357055.9,286047003.4,N
1595357075.7,286047004.0,N
1595357095.6,286047001.5,N
1595357115.4,286047001.2,N
1595357135.2,286046998.4,N
1595357155.1,286047000.1,N
1595357156.0,286047000.1,N
1595357175.8,286047000.6,N
1595357195.7,286047000.8,N
1595357215.5,286047001.1,N
1595357235.3,286047000.9,N
1595357255.2,286047000.9,N
1595357275.9,286047000.6,N
1595357295.7,286047000.9,N
1595357315.6,286047001.0,N
1595357335.4,286047000.9,N
1595357355.3,286047000.3,N
1595357375.1,286047000.6,N
1595357376.0,286047000.6,N
1595357395.8,286047001.0,N
1595357415.7,286047000.9,N
1595357435.5,286047000.9,N
1595357455.3,286047000.8,N
1595357475.2,286047000.2,N
1595357495.0,286047000.3,N
1595357495.9,286047000.3,N
1595357515.8,286047000.8,N
1595357535.6,286046998.5,N
1595357555.4,286046998.6,N
1595357575.3,286046998.4,N
1595357595.1,286046996.9,N
1595357615.8,286046996.7,N
1595357635.7,286046999.5,N
1595357655.5,286046998.8,N
1595357675.4,286047000.9,N
1595357695.2,286046998.8,N
1595357715.0,286046996.5,N
1595357715.9,286046996.5,N
1595357735.8,286046996.5,N
1595357755.6,286046999.6,N
1595357775.4,286046996.6,N
1595357795.3,286047011.9,Y
1595357815.1,286046998.6,P
1595357835.9,286046998.6,P
1595357855.7,286047001.2,N
1595357875.5,286046998.2,N
1595357895.4,286047000.8,N
1595357915.2,286047000.5,N
1595357935.0,286046999.7,N
1595357935.9,286046999.7,N
1595357955.8,286047002.7,N
1595357975.6,286047000.3,N
1595357995.5,286047000.4,N
